www.pogodaiklimat.ru

Погода и климат >> Архив погоды >> Канада >> Chapleau A


ПОГОДА в Chapleau A

  • Прогноз погоды в Chapleau A
  • Монитор погоды в Chapleau A
  • Климат города

АРХИВ ПОГОДЫ в Chapleau A

Время (UTC), дата Ветер
(напр.,м/с)
 
Видим.   Явления Облачность Т
(С)
Тd
(С)
f
(%)
Тe
(С)
Тes
(С)
Комфортность P
(гПа)
Po
(гПа)
Тmin
(С)
Tmax
(С)
R
(мм)
R24
(мм)
S
(см)
12 18.06 С 5 16 км слабый дождь 10/10 50 м
[Sc]
+17.4 +17.0 97 +17 +17 1010.4 957.6 2
15 18.06 СВ 5 24 км 10/10 200 м
[]
+15.1 +13.9 93 +14 +14 1012.9 959.8
18 18.06 С 3 24 км {дождь} 8/8 600 м
[Cu hum Cc]
+21.4 +14.6 65 +24 +27 комфорт 1013.0 960.1 3
21 18.06 С 5 24 км 5/5 1500 м
[]
+24.2 +11.0 43 +25 +28 комфорт 1013.5 960.6
00 19.06 С 6 24 км 1/1 1500 м
[Cu hum]
+21.2 +10.2 49 +23 +23 комфорт 1015.0 961.8 +24.4
12 19.06 СЗ 1 24 км 1/0
[Ci fib]
+14.1 +8.3 68 +15 +18 1020.7 967.1
15 19.06 СЗ 2 24 км ясно +19.4 +8.5 49 +21 +36 комфорт 1020.3 966.7
18 19.06 С 1 24 км 1/0 1500 м
[Cu hum Ci fib]
+22.1 +7.3 38 +23 +46 комфорт 1018.8 965.2
21 19.06 СЗ 3 24 км ясно +24.0 +6.7 33 +24 +33 комфорт 1017.0 963.4
00 20.06 СЗ 1 24 км ясно +23.3 +6.6 34 +24 +25 комфорт 1015.1 961.9 +24.8
12 20.06 З 2 24 км ясно +15.1 +8.5 65 +15 +18 1013.7 960.6
15 20.06 С 2 24 км 6/0
[]
+19.5 +10.7 57 +21 +32 комфорт 1013.7 960.5
18 20.06 С 6 24 км 10/3 600 м
[Sc Ac As]
+18.4 +12.9 70 +18 +20 1014.4 961.0
21 20.06 С 5 24 км 10/10 200 м
[]
+12.8 +10.3 85 +11 +11 1015.9 962.0
00 21.06 С 5 24 км {ливн. осадки} ясно +15.5 +7.9 61 +14 +15 1015.2 961.7 +22.4 0.0
12 21.06 В 4 24 км ясно +8.0 +3.2 72 +5 +7 1018.7 964.6
15 21.06 В 3 24 км ясно +13.7 +3.4 50 +13 +25 опасность
простуды
1018.9 964.8
18 21.06 ЮЗ 1 24 км ясно +18.9 +4.8 39 +20 +42 опасность
простуды
1017.5 963.6
21 21.06 ЮВ 2 24 км ясно +21.8 +3.7 30 +22 +33 комфорт 1015.8 962.0
00 22.06 З 1 24 км ясно +20.9 +5.7 37 +23 +24 комфорт 1015.1 961.5 +22.4
12 22.06 ЮЗ 3 24 км ясно +13.9 +7.2 64 +13 +15 1015.8 962.4
15 22.06 ЮЗ 3 24 км 8/0
[]
+20.6 +6.5 40 +22 +28 комфорт 1016.0 962.5
18 22.06 ЮЗ 3 24 км 8/0
[Cc]
+24.7 +6.2 30 +25 +38 комфорт 1014.5 961.1
21 22.06 ЮЗ 2 24 км 4/0
[]
+26.2 +8.1 32 +26 +35 жарко 1013.2 959.9
00 23.06 Ю 1 24 км 5/0
[Ac trans Cc]
+25.3 +9.3 36 +26 +27 жарко 1012.1 959.1 +26.5
12 23.06 Ю 2 24 км 6/0
[Ac trans Ci fib]
+17.4 +10.3 63 +18 +20 1010.8 958.0
15 23.06 З 1 24 км 9/0
[]
+23.4 +7.1 35 +24 +33 комфорт 1010.2 957.3
18 23.06 ЮВ 3 24 км 5 баллов +26.0 +5.2 26 +25 +34 комфорт 1008.9 956.0
21 23.06 С 5 24 км 6/0 2000 м
[]
+25.7 +12.9 45 +28 +31 жарко 1008.9 956.0
00 24.06 СВ 7 24 км 8 баллов +19.9 +10.2 54 +21 +21 комфорт 1010.2 957.2 +27.9
12 24.06 СВ 5 24 км слабый дождь 10/10 200 м
[Sc]
+6.3 +5.2 93 +2 +2 1018.0 964.1 1
15 24.06 СВ 6 24 км 3/0
[]
+12.8 +2.8 51 +11 +16 1019.5 965.3
18 24.06 С 6 24 км {дождь} 4/0
[Ci fib]
+16.9 +1.4 35 +16 +23 1019.8 965.7 0.0
21 24.06 С 4 24 км ясно +18.8 +2.9 35 +19 +26 1020.4 966.3
00 25.06 С 5 24 км ясно +16.7 +1.8 37 +16 +17 1021.9 967.6 +19.3

 

Местоположение метеостанции Chapleau A (Канада): широта 47.82 долгота -83.35 высота над уровнем моря 447 м.

В архиве по умолчанию представлена погода в Chapleau A за последнюю неделю. Архивные данные за месяц целиком и за предыдущие месяцы, начиная с января 2011 года, Вы можете получить, выбрав интересующий диапазон дат из раскрывающегося списка и нажав кнопку "Ввод!".


*Определитесь, кто Вы:
робот инопланетянин человек

Внимание! Время в таблицах - всемирное. Для получения местного времени необходимо прибавить поправку, которая в Chapleau A равна -5 ч.

Смотрите также архив погоды в соседних городах и на ближайших метеорологических станциях:

Погода в Lake Superior Provincial Park (Канада) (103 км)
Погода в Wawa (Канада) (108 км)
Погода в Montreal River Radar (Канада) (120 км)
Погода в Timmins Climate (Канада) (167 км)
Погода в Timmins (Канада) (169 км)
Погода в Sault Ste Marie (Канада) (173 км)
Погода в Elliott Lake (Канада) (174 км)
Погода в Kapuskasing (Канада) (188 км)
Погода в Kapuskasing (Канада) (188 км)
Погода в Kapuskasing Airport (Канада) (190 км)

Пояснения к столбцам:

Ветер - указаны скорость ветра в м/с - средняя за 10 мин, порывы в срок и между сроками (в фигурных скобках) и направление, откуда дует ветер: С - северный, СВ - северо-восточный, В - восточный, ЮВ - юго-восточный, Ю - южный, ЮЗ - юго-западный, З - западный, СЗ - северо-западный.
Видимость - горизонтальная дальность видимости в метрах или километрах. При видимости от 1 до 10 км при отсутствии осадков обычно наблюдается дымка, при ухудшении видимости до 1 км и менее - туман. В сухую погоду видимость может ухудшаться дымом, пылью или мглою.
Явления - указаны атмосферные явления, наблюдавшиеся в срок или в последний час перед сроком; фигурными скобками обозначены явления, наблюдавшиеся между сроками (за 1-3 часа до срока); квадратными скобками обозначены град или гололедные отложения с указанием их диаметра в мм.
Облачность - указаны через наклонную черту общая и нижняя облачность в баллах и высота нижней границы облаков в метрах; квадратными скобками обозначены формы облаков: Ci - перистые, Cs - перисто-слоистые, Cc - перисто-кучевые, Ac - высококучевые, As - высокослоистые, Sc - слоисто-кучевые, Ns - слоисто-дождевые, Cu - кучевые, Cb - кучево-дождевые. Подробнее классификацию облаков см. в Атласе облаков (PDF).
T - Температура воздуха - температура, измеренная на высоте 2 м над землей.
Td - Температура точки росы - температура, при понижении до которой содержащийся в воздухе водяной пар достигнет насыщения.
f - Относительная влажность воздуха - влажноcть воздуха, измеренная на высоте 2 м над землей.
Te - Эффективная температура - температура, которую ощущает одетый по сезону человек в тени. Характеристика душности погоды. При расчете учитывается влияние влажности воздуха и скорости ветра на теплоощущения человека.
Tes - Эффективная температура на солнце - температура, которую ощущает человек, с поправкой на солнечный нагрев. Характеристика знойности погоды. Зависит от высоты солнца над горизонтом, облачности и скорости ветра. Ночью, в пасмурную погоду, а также при ветре 12 м/с и более поправка равна нулю.
P - Атмосферное давление - приведенное к уровню моря атмосферное давление.
Po - Атмосферное давление - измеренное на уровне метеостанции атмосферное давление.
Tmin - Минимальная температура - минимум температуры воздуха на высоте 2 м над землей.
Tmax - Максимальная температура - максимум температуры воздуха на высоте 2 м над землей.
R - Количество осадков - Количество выпавших осадков за период времени, мм. При наведении курсора мыши на число - период времени, за который выпало указанное количество осадков.
R24 - Количество осадков - Количество выпавших осадков за 24 часа, мм.
S - Снежный покров - Высота снежного покрова, см. При наведении курсора мыши на число - состояние снежного покрова и степень покрытия местности в баллах.